This is the latest recevied weather packets stored in our database for station/object N5VIS. If no packets are shown the sender has not sent any weather packets the latest 10 day(s).
| Time | Temp. | Humidity | Pressure | Rain* | Wind** | Luminosity | Snow |
|---|---|---|---|---|---|---|---|
| 1777724865 | 13.33° C | 99% | 1012.2 hPa | 0 mm | - | - | - |
| 1777724561 | 12.78° C | 99% | 1012.3 hPa | 0 mm | - | - | - |
| 1777724260 | 12.78° C | 99% | 1012.6 hPa | 0 mm | - | - | - |
| 1777723957 | 12.78° C | 99% | 1012.7 hPa | 0 mm | - | - | - |
| 1777723653 | 12.78° C | 99% | 1012.6 hPa | 0 mm | - | - | - |
| 1777723350 | 12.78° C | 99% | 1012.6 hPa | 1.78 mm | - | - | - |
| 1777723048 | 12.78° C | 99% | 1012.6 hPa | 1.78 mm | - | - | - |
| 1777722745 | 12.78° C | 99% | 1012.3 hPa | 0 mm | - | - | - |
| 1777722440 | 12.78° C | 99% | 1012.3 hPa | 0 mm | - | - | - |
| 1777722138 | 12.78° C | 99% | 1012.9 hPa | 1.27 mm | - | - | - |
| 1777721835 | 12.78° C | 99% | 1012.7 hPa | 4.83 mm | - | - | - |
| 1777721533 | 12.78° C | 99% | 1012.2 hPa | 4.83 mm | - | - | - |
| 1777721231 | 12.78° C | 99% | 1012.1 hPa | 4.32 mm | - | - | - |
| 1777720928 | 12.78° C | 99% | 1012.3 hPa | 4.83 mm | - | - | - |
| 1777720625 | 12.78° C | 99% | 1013.1 hPa | 3.05 mm | - | - | - |
| 1777720322 | 12.78° C | 99% | 1012.6 hPa | 3.05 mm | - | - | - |
| 1777720020 | 12.78° C | 99% | 1011.7 hPa | 1.78 mm | - | - | - |
| 1777719717 | 12.78° C | 99% | 1012 hPa | 0 mm | - | - | - |
| 1777719415 | 12.78° C | 99% | 1011.8 hPa | 0 mm | - | - | - |
| 1777719111 | 12.78° C | 99% | 1012 hPa | 0 mm | - | - | - |
| 1777718809 | 13.33° C | 99% | 1011.8 hPa | 0 mm | - | - | - |
| 1777718506 | 13.33° C | 99% | 1012.3 hPa | 0 mm | - | - | - |
| 1777718203 | 13.33° C | 99% | 1012.3 hPa | 1.27 mm | - | - | - |
| 1777717901 | 13.33° C | 99% | 1012.3 hPa | 1.27 mm | - | - | - |
| 1777717598 | 13.33° C | 99% | 1012.3 hPa | 0 mm | - | - | - |
* Rain latest hour (hover to see other rain measurements)
** Current wind speed in m/s (hover to see current wind gust speed)